This demonstration page uses our WeatherBlox Daily Observations layout. Learn more.

Left ArrowRight Arrow

39.08367, -84.50855

Hourly Observations for December 11, 2017

Temp ( °F °C ) Dew Point ( °F °C ) Humidity (%) Winds ( mph kmh ) Pressure ( in mb ) Visibility ( mi km ) Precip ( " mm )
12:53 am 00:53 Clear 32 undefined 23 -5 69 69 W 6 9 30.11 1020 10 16 N/A
1:53 am 01:53 Clear 32 undefined 23 -5 69 69 W 7 11 30.13 1020 10 16 N/A
2:53 am 02:53 Clear 30 -1.1 23 -5 75 75 W 5 7 30.13 1020 10 16 N/A
3:53 am 03:53 Clear 25 -3.9 23 -5 92 92 N N/A 30.13 1020 10 16 N/A
4:53 am 04:53 Clear 23 -5 21 -6.1 92 92 N N/A 30.14 1021 10 16 N/A
5:53 am 05:53 Clear 20 -6.7 18 -7.8 92 92 N N/A 30.14 1021 10 16 N/A
6:53 am 06:53 Clear 21 -6.1 19 -7.2 92 92 N N/A 30.14 1021 10 16 N/A
7:53 am 07:53 Mostly Cloudy 23 -5 21 -6.1 92 92 N N/A 30.13 1020 9 14 N/A
8:53 am 08:53 Mostly Cloudy 27 -2.8 25 -3.9 92 92 N N/A 30.11 1020 7 11 N/A
9:53 am 09:53 Partly Cloudy 29 -1.7 26 -3.3 89 89 VRB 3 6 30.10 1019 10 16 N/A
10:53 am 10:53 Partly Cloudy 35 1.7 27 -2.8 72 72 SSE 10 17 30.05 1018 10 16 N/A
11:53 am 11:53 Sunny 36 2.2 26 -3.3 67 67 SSW 6 9 30.02 1017 10 16 N/A
12:53 pm 12:53 Sunny 43 6.1 28 -2.2 56 56 S 10 17 29.96 1015 10 16 N/A
1:53 pm 13:53 Sunny 44 6.7 28 -2.2 53 53 S 13 20 29.89 1012 10 16 N/A
2:53 pm 14:53 Sunny 46 7.8 28 -2.2 50 50 S 10 17 29.86 1011 10 16 N/A
3:53 pm 15:53 Sunny 46 7.8 28 -2.2 50 50 S 10 17 29.80 1009 10 16 N/A
4:53 pm 16:53 Sunny 46 7.8 28 -2.2 50 50 N N/A 29.78 1008 10 16 N/A
5:53 pm 17:53 Clear 39 3.9 29 -1.7 67 67 SSE 5 7 29.77 1008 10 16 N/A
6:53 pm 18:53 Clear 37 2.8 29 -1.7 73 73 N N/A 29.75 1007 10 16 N/A
7:53 pm 19:53 Clear 34 1.1 28 -2.2 79 79 N N/A 29.72 1007 10 16 N/A
8:53 pm 20:53 Clear 34 1.1 29 -1.7 82 82 SW 8 13 29.71 1006 10 16 N/A
9:53 pm 21:53 Clear 45 7.2 30 -1.1 56 56 WSW 15 24 29.72 1006 10 16 N/A
10:53 pm 22:53 Cloudy 45 7.2 28 -2.2 52 52 W 13 20 29.73 1007 10 16 N/A
11:53 pm 23:53 Cloudy 45 7.2 28 -2.2 52 52 W 10 17 29.74 1007 10 16 N/A

Powered by AerisWeather